Time,TemperatureF,DewpointF,PressureIn,WindDirection,WindDirectionDegrees,WindSpeedMPH,WindSpeedGustMPH,Humidity,HourlyPrecipIn,Conditions,Clouds,dailyrainin,SolarRadiationWatts/m^2,SoftwareType,DateUTC
2013-01-30 00:04:00,37.0,30.0,-100.00,South,176,5.0,10.0,77,0.00,,,0.02,0.000000,,2013-01-30 05:04:00,
2013-01-30 00:12:00,37.0,30.0,-100.00,South,176,5.0,10.0,77,0.00,,,0.02,0.000000,,2013-01-30 05:12:00,
2013-01-30 00:22:00,37.0,30.0,-100.00,South,176,5.0,10.0,77,0.00,,,0.02,0.000000,,2013-01-30 05:22:00,
2013-01-30 00:32:00,37.0,30.0,-100.00,South,176,5.0,10.0,77,0.00,,,0.02,0.000000,,2013-01-30 05:32:00,
2013-01-30 00:52:00,38.0,31.0,-100.00,SSW,200,6.0,12.0,76,0.00,,,0.02,0.000000,,2013-01-30 05:52:00,
2013-01-30 01:02:00,38.0,31.0,-100.00,SSW,200,6.0,12.0,76,0.00,,,0.02,0.000000,,2013-01-30 06:02:00,
2013-01-30 01:12:00,38.0,31.0,-100.00,SSW,200,6.0,12.0,76,0.00,,,0.02,0.000000,,2013-01-30 06:12:00,
2013-01-30 01:22:00,38.0,31.0,-100.00,SSW,200,6.0,12.0,76,0.00,,,0.02,0.000000,,2013-01-30 06:22:00,
2013-01-30 01:32:00,38.0,31.0,-100.00,SSW,200,6.0,12.0,76,0.00,,,0.02,0.000000,,2013-01-30 06:32:00,
2013-01-30 02:02:00,38.0,32.0,-100.00,South,186,5.0,14.0,79,0.00,,,0.02,0.000000,,2013-01-30 07:02:00,
2013-01-30 02:12:00,38.0,32.0,-100.00,South,186,5.0,14.0,79,0.00,,,0.02,0.000000,,2013-01-30 07:12:00,
2013-01-30 02:22:00,38.0,32.0,-100.00,South,186,5.0,14.0,79,0.00,,,0.02,0.000000,,2013-01-30 07:22:00,
2013-01-30 02:32:00,38.0,32.0,-100.00,South,186,5.0,14.0,79,0.00,,,0.02,0.000000,,2013-01-30 07:32:00,
2013-01-30 03:02:00,39.0,35.0,-100.00,SSW,200,6.0,12.0,84,0.00,,,0.02,0.000000,,2013-01-30 08:02:00,
2013-01-30 03:11:00,39.0,35.0,-100.00,SSW,200,6.0,12.0,84,0.00,,,0.02,0.000000,,2013-01-30 08:11:00,
2013-01-30 03:22:00,39.0,35.0,-100.00,SSW,200,6.0,12.0,84,0.00,,,0.02,0.000000,,2013-01-30 08:22:00,
2013-01-30 03:32:00,39.0,35.0,-100.00,SSW,200,6.0,12.0,84,0.00,,,0.02,0.000000,,2013-01-30 08:32:00,
2013-01-30 04:02:00,39.0,37.0,-100.00,SSW,209,6.0,14.0,92,0.00,,,0.02,0.000000,,2013-01-30 09:02:00,
2013-01-30 04:12:00,39.0,37.0,-100.00,SSW,209,6.0,14.0,92,0.00,,,0.02,0.000000,,2013-01-30 09:12:00,
2013-01-30 04:22:00,39.0,37.0,-100.00,SSW,209,6.0,14.0,92,0.00,,,0.02,0.000000,,2013-01-30 09:22:00,
2013-01-30 04:32:00,39.0,37.0,-100.00,SSW,209,6.0,14.0,92,0.00,,,0.02,0.000000,,2013-01-30 09:32:00,
2013-01-30 04:52:00,39.0,37.0,-100.00,SSW,210,6.0,14.0,94,0.01,,,0.03,0.000000,,2013-01-30 09:52:00,
2013-01-30 05:02:00,39.0,37.0,-100.00,SSW,210,6.0,14.0,94,0.01,,,0.03,0.000000,,2013-01-30 10:02:00,
2013-01-30 05:12:00,39.0,37.0,-100.00,SSW,210,6.0,14.0,94,0.01,,,0.03,0.000000,,2013-01-30 10:12:00,
2013-01-30 05:21:00,39.0,37.0,-100.00,SSW,210,6.0,14.0,94,0.01,,,0.03,0.000000,,2013-01-30 10:21:00,
2013-01-30 05:32:00,39.0,37.0,-100.00,SSW,210,6.0,14.0,94,0.01,,,0.03,0.000000,,2013-01-30 10:32:00,
2013-01-30 06:02:00,40.0,38.0,-100.00,SW,214,8.0,15.0,94,0.02,,,0.05,0.000000,,2013-01-30 11:02:00,
2013-01-30 06:11:00,40.0,38.0,-100.00,SW,214,8.0,15.0,94,0.02,,,0.05,0.000000,,2013-01-30 11:11:00,
2013-01-30 06:22:00,40.0,38.0,-100.00,SW,214,8.0,15.0,94,0.02,,,0.05,0.000000,,2013-01-30 11:22:00,
2013-01-30 06:33:00,40.0,38.0,-100.00,SW,214,8.0,15.0,94,0.02,,,0.05,0.000000,,2013-01-30 11:33:00,
2013-01-30 07:02:00,40.0,38.0,-100.00,SSW,209,7.0,16.0,94,0.02,,,0.07,0.000000,,2013-01-30 12:02:00,
2013-01-30 07:12:00,40.0,38.0,-100.00,SSW,209,7.0,16.0,94,0.02,,,0.07,0.000000,,2013-01-30 12:12:00,
2013-01-30 07:22:00,40.0,38.0,-100.00,SSW,209,7.0,16.0,94,0.02,,,0.07,0.000000,,2013-01-30 12:22:00,
2013-01-30 07:33:00,40.0,38.0,-100.00,SSW,209,7.0,16.0,94,0.02,,,0.07,0.000000,,2013-01-30 12:33:00,
2013-01-30 08:03:00,41.0,40.0,-100.00,SW,217,9.0,17.0,95,0.00,,,0.07,3.000000,,2013-01-30 13:03:00,
2013-01-30 08:12:00,41.0,40.0,-100.00,SW,217,9.0,17.0,95,0.00,,,0.07,3.000000,,2013-01-30 13:12:00,
2013-01-30 08:23:00,41.0,40.0,-100.00,SW,217,9.0,17.0,95,0.00,,,0.07,3.000000,,2013-01-30 13:23:00,
2013-01-30 08:33:00,41.0,40.0,-100.00,SW,217,9.0,17.0,95,0.00,,,0.07,3.000000,,2013-01-30 13:33:00,
2013-01-30 09:03:00,42.0,41.0,-100.00,SSW,211,10.0,19.0,96,0.00,,,0.07,19.000000,,2013-01-30 14:03:00,
2013-01-30 09:12:00,42.0,41.0,-100.00,SSW,211,10.0,19.0,96,0.00,,,0.07,19.000000,,2013-01-30 14:12:00,
2013-01-30 09:23:00,42.0,41.0,-100.00,SSW,211,10.0,19.0,96,0.00,,,0.07,19.000000,,2013-01-30 14:23:00,
2013-01-30 09:33:00,42.0,41.0,-100.00,SSW,211,10.0,19.0,96,0.00,,,0.07,19.000000,,2013-01-30 14:33:00,
2013-01-30 10:03:00,43.0,42.0,-100.00,SSW,207,8.0,17.0,97,0.01,,,0.06,34.000000,,2013-01-30 15:03:00,
2013-01-30 10:12:00,43.0,42.0,-100.00,SSW,207,8.0,17.0,97,0.01,,,0.06,34.000000,,2013-01-30 15:12:00,
2013-01-30 10:23:00,43.0,42.0,-100.00,SSW,207,8.0,17.0,97,0.01,,,0.06,34.000000,,2013-01-30 15:23:00,
2013-01-30 10:33:00,43.0,42.0,-100.00,SSW,207,8.0,17.0,97,0.01,,,0.06,34.000000,,2013-01-30 15:33:00,
2013-01-30 11:03:00,44.0,43.0,-100.00,SSW,199,9.0,18.0,96,0.00,,,0.06,55.000000,,2013-01-30 16:03:00,
2013-01-30 11:13:00,44.0,43.0,-100.00,SSW,199,9.0,18.0,96,0.00,,,0.06,55.000000,,2013-01-30 16:13:00,
2013-01-30 11:23:00,44.0,43.0,-100.00,SSW,199,9.0,18.0,96,0.00,,,0.06,55.000000,,2013-01-30 16:23:00,
2013-01-30 11:32:00,44.0,43.0,-100.00,SSW,199,9.0,18.0,96,0.00,,,0.06,55.000000,,2013-01-30 16:32:00,
2013-01-30 11:52:00,46.0,45.0,-100.00,SSW,204,11.0,23.0,96,0.00,,,0.06,87.000000,,2013-01-30 16:52:00,
2013-01-30 12:03:00,46.0,45.0,-100.00,SSW,204,11.0,23.0,96,0.00,,,0.06,87.000000,,2013-01-30 17:03:00,
2013-01-30 12:13:00,46.0,45.0,-100.00,SSW,204,11.0,23.0,96,0.00,,,0.06,87.000000,,2013-01-30 17:13:00,
2013-01-30 12:23:00,46.0,45.0,-100.00,SSW,204,11.0,23.0,96,0.00,,,0.06,87.000000,,2013-01-30 17:23:00,
2013-01-30 12:33:00,46.0,45.0,-100.00,SSW,204,11.0,23.0,96,0.00,,,0.06,87.000000,,2013-01-30 17:33:00,
2013-01-30 13:03:00,47.0,45.0,-100.00,SSW,208,10.0,22.0,94,0.00,,,0.06,78.000000,,2013-01-30 18:03:00,
2013-01-30 13:13:00,47.0,45.0,-100.00,SSW,208,10.0,22.0,94,0.00,,,0.06,78.000000,,2013-01-30 18:13:00,
2013-01-30 13:23:00,47.0,45.0,-100.00,SSW,208,10.0,22.0,94,0.00,,,0.06,78.000000,,2013-01-30 18:23:00,
2013-01-30 13:33:00,47.0,45.0,-100.00,SSW,208,10.0,22.0,94,0.00,,,0.06,78.000000,,2013-01-30 18:33:00,
2013-01-30 14:03:00,49.0,47.0,-100.00,SSW,207,12.0,24.0,93,0.00,,,0.06,60.000000,,2013-01-30 19:03:00,
2013-01-30 14:13:00,49.0,47.0,-100.00,SSW,207,12.0,24.0,93,0.00,,,0.06,60.000000,,2013-01-30 19:13:00,
2013-01-30 14:22:00,49.0,47.0,-100.00,SSW,207,12.0,24.0,93,0.00,,,0.06,60.000000,,2013-01-30 19:22:00,
2013-01-30 14:33:00,49.0,47.0,-100.00,SSW,207,12.0,24.0,93,0.00,,,0.06,60.000000,,2013-01-30 19:33:00,
2013-01-30 15:03:00,50.0,49.0,-100.00,SW,215,11.0,24.0,96,0.00,,,0.06,30.000000,,2013-01-30 20:03:00,
2013-01-30 15:12:00,50.0,49.0,-100.00,SW,215,11.0,24.0,96,0.00,,,0.06,30.000000,,2013-01-30 20:12:00,
2013-01-30 15:22:00,50.0,49.0,-100.00,SW,215,11.0,24.0,96,0.00,,,0.06,30.000000,,2013-01-30 20:22:00,
2013-01-30 15:33:00,50.0,49.0,-100.00,SW,215,11.0,24.0,96,0.00,,,0.06,30.000000,,2013-01-30 20:33:00,
2013-01-30 16:04:00,50.0,49.0,-100.00,SW,216,12.0,23.0,97,0.00,,,0.06,30.000000,,2013-01-30 21:04:00,
2013-01-30 16:12:00,50.0,49.0,-100.00,SW,216,12.0,23.0,97,0.00,,,0.06,30.000000,,2013-01-30 21:12:00,
2013-01-30 16:23:00,50.0,49.0,-100.00,SW,216,12.0,23.0,97,0.00,,,0.06,30.000000,,2013-01-30 21:23:00,
2013-01-30 16:32:00,50.0,49.0,-100.00,SW,216,12.0,23.0,97,0.00,,,0.06,30.000000,,2013-01-30 21:32:00,
2013-01-30 16:53:00,51.0,50.0,-100.00,SSW,212,14.0,26.0,96,0.00,,,0.06,7.000000,,2013-01-30 21:53:00,
2013-01-30 17:03:00,51.0,50.0,-100.00,SSW,212,14.0,26.0,96,0.00,,,0.06,7.000000,,2013-01-30 22:03:00,
2013-01-30 17:12:00,51.0,50.0,-100.00,SSW,212,14.0,26.0,96,0.00,,,0.06,7.000000,,2013-01-30 22:12:00,
2013-01-30 17:22:00,51.0,50.0,-100.00,SSW,212,14.0,26.0,96,0.00,,,0.06,7.000000,,2013-01-30 22:22:00,
2013-01-30 17:32:00,51.0,50.0,-100.00,SSW,212,14.0,26.0,96,0.00,,,0.06,7.000000,,2013-01-30 22:32:00,
2013-01-30 18:03:00,51.0,50.0,-100.00,SW,221,14.0,32.0,95,0.00,,,0.06,0.000000,,2013-01-30 23:03:00,
2013-01-30 18:12:00,51.0,50.0,-100.00,SW,221,14.0,32.0,95,0.00,,,0.06,0.000000,,2013-01-30 23:12:00,
2013-01-30 18:22:00,51.0,50.0,-100.00,SW,221,14.0,32.0,95,0.00,,,0.06,0.000000,,2013-01-30 23:22:00,
2013-01-30 18:33:00,51.0,50.0,-100.00,SW,221,14.0,32.0,95,0.00,,,0.06,0.000000,,2013-01-30 23:33:00,
2013-01-30 19:02:00,51.0,50.0,-100.00,SW,214,14.0,30.0,97,0.00,,,0.06,0.000000,,2013-01-31 00:02:00,
2013-01-30 19:11:00,51.0,50.0,-100.00,SW,214,14.0,30.0,97,0.00,,,0.06,0.000000,,2013-01-31 00:11:00,
2013-01-30 19:22:00,51.0,50.0,-100.00,SW,214,14.0,30.0,97,0.00,,,0.06,0.000000,,2013-01-31 00:22:00,
2013-01-30 19:32:00,51.0,50.0,-100.00,SW,214,14.0,30.0,97,0.00,,,0.06,0.000000,,2013-01-31 00:32:00,
2013-01-30 19:53:00,51.0,50.0,-100.00,SW,215,13.0,34.0,98,0.00,,,0.06,0.000000,,2013-01-31 00:53:00,
2013-01-30 20:02:00,51.0,50.0,-100.00,SW,215,13.0,34.0,98,0.00,,,0.06,0.000000,,2013-01-31 01:02:00,
2013-01-30 20:12:00,51.0,50.0,-100.00,SW,215,13.0,34.0,98,0.00,,,0.06,0.000000,,2013-01-31 01:12:00,
2013-01-30 20:22:00,51.0,50.0,-100.00,SW,215,13.0,34.0,98,0.00,,,0.06,0.000000,,2013-01-31 01:22:00,
2013-01-30 20:32:00,51.0,50.0,-100.00,SW,215,13.0,34.0,98,0.00,,,0.06,0.000000,,2013-01-31 01:32:00,
2013-01-30 21:01:00,49.0,48.0,-100.00,SW,226,10.0,28.0,98,0.00,,,0.06,0.000000,,2013-01-31 02:01:00,
2013-01-30 21:12:00,49.0,48.0,-100.00,SW,226,10.0,28.0,98,0.00,,,0.06,0.000000,,2013-01-31 02:12:00,
2013-01-30 21:22:00,49.0,48.0,-100.00,SW,226,10.0,28.0,98,0.00,,,0.06,0.000000,,2013-01-31 02:22:00,
2013-01-30 21:32:00,49.0,48.0,-100.00,SW,226,10.0,28.0,98,0.00,,,0.06,0.000000,,2013-01-31 02:32:00,
2013-01-30 22:03:00,50.0,50.0,-100.00,SW,223,13.0,29.0,99,0.04,,,0.10,0.000000,,2013-01-31 03:03:00,
2013-01-30 22:11:00,50.0,50.0,-100.00,SW,223,13.0,29.0,99,0.04,,,0.10,0.000000,,2013-01-31 03:11:00,
2013-01-30 22:22:00,50.0,50.0,-100.00,SW,223,13.0,29.0,99,0.04,,,0.10,0.000000,,2013-01-31 03:22:00,
2013-01-30 22:32:00,50.0,50.0,-100.00,SW,223,13.0,29.0,99,0.04,,,0.10,0.000000,,2013-01-31 03:32:00,
2013-01-30 23:02:00,51.0,51.0,-100.00,SW,222,13.0,27.0,99,0.01,,,0.11,0.000000,,2013-01-31 04:02:00,
2013-01-30 23:11:00,51.0,51.0,-100.00,SW,222,13.0,27.0,99,0.01,,,0.11,0.000000,,2013-01-31 04:11:00,
2013-01-30 23:22:00,51.0,51.0,-100.00,SW,222,13.0,27.0,99,0.01,,,0.11,0.000000,,2013-01-31 04:22:00,
2013-01-30 23:32:00,51.0,51.0,-100.00,SW,222,13.0,27.0,99,0.01,,,0.11,0.000000,,2013-01-31 04:32:00,